| time (UTC) | temp C | wind direction | speed KPH | gust KPH | rain 1hr cm | rain 24hr cm | rain mn cm | humidity % | barometer mb |
| 20260902220005 | 13 | 181 | 0.0 | 4.8 | 0.00 | 0.05 | 0.00 | 94 | 1022.5 |
| 20260902215003 | 14 | 144 | 3.2 | 4.8 | 0.00 | 0.05 | 0.05 | 94 | 1022.6 |
| 20260902214004 | 14 | 131 | 3.2 | 6.4 | 0.00 | 0.05 | 0.05 | 94 | 1022.8 |
| 20260902213004 | 14 | 135 | 3.2 | 6.4 | 0.00 | 0.05 | 0.05 | 94 | 1022.6 |
| 20260902212007 | 14 | 53 | 3.2 | 4.8 | 0.00 | 0.05 | 0.05 | 94 | 1022.5 |
| 20260902211003 | 14 | 0 | 0.0 | 0.0 | 0.00 | 0.05 | 0.05 | 94 | 1022.5 |
| 20260902210004 | 15 | 0 | 0.0 | 0.0 | 0.00 | 0.05 | 0.05 | 94 | 1022.7 |
| 20260902205005 | 15 | 1 | 0.0 | 3.2 | 0.00 | 0.05 | 0.05 | 93 | 1022.4 |
| 20260902204003 | 15 | 1 | 1.6 | 6.4 | 0.00 | 0.05 | 0.05 | 93 | 1022.6 |
| 20260902203003 | 15 | 1 | 1.6 | 4.8 | 0.00 | 0.05 | 0.05 | 93 | 1022.6 |
| 20260902202006 | 15 | 0 | 0.0 | 0.0 | 0.00 | 0.05 | 0.05 | 93 | 1022.6 |
| 20260902201003 | 15 | 0 | 0.0 | 0.0 | 0.00 | 0.05 | 0.05 | 92 | 1022.5 |
| 20260902200004 | 15 | 270 | 0.0 | 3.2 | 0.00 | 0.05 | 0.05 | 92 | 1022.5 |
| 20260902195004 | 15 | 270 | 0.0 | 1.6 | 0.00 | 0.05 | 0.05 | 92 | 1022.4 |
| 20260902194003 | 15 | 270 | 0.0 | 3.2 | 0.00 | 0.05 | 0.05 | 92 | 1022.7 |
| 20260902193004 | 15 | 0 | 0.0 | 0.0 | 0.00 | 0.05 | 0.05 | 91 | 1022.7 |
| 20260902192004 | 16 | 0 | 0.0 | 0.0 | 0.00 | 0.05 | 0.05 | 90 | 1022.7 |
| 20260902185003 | 16 | 0 | 0.0 | 0.0 | 0.00 | 0.05 | 0.05 | 89 | 1022.7 |
| 20260902184005 | 16 | 270 | 0.0 | 1.6 | 0.00 | 0.05 | 0.05 | 89 | 1022.6 |
| 20260902183005 | 16 | 0 | 0.0 | 0.0 | 0.00 | 0.05 | 0.05 | 88 | 1022.6 |
| 20260902182006 | 16 | 0 | 0.0 | 0.0 | 0.00 | 0.05 | 0.05 | 87 | 1022.6 |
| 20260902181003 | 17 | 270 | 0.0 | 3.2 | 0.00 | 0.05 | 0.05 | 85 | 1022.3 |
| 20260902180006 | 17 | 270 | 1.6 | 3.2 | 0.00 | 0.05 | 0.05 | 84 | 1022.3 |
| 20260902175005 | 17 | 270 | 0.0 | 3.2 | 0.00 | 0.05 | 0.05 | 83 | 1022.3 |
| 20260902173003 | 18 | 246 | 3.2 | 4.8 | 0.00 | 0.05 | 0.05 | 82 | 1022.2 |
| 20260902172004 | 18 | 182 | 3.2 | 4.8 | 0.00 | 0.05 | 0.05 | 80 | 1022.0 |
| 20260902171004 | 19 | 135 | 0.0 | 3.2 | 0.00 | 0.05 | 0.05 | 77 | 1022.0 |
| 20260902170004 | 19 | 151 | 1.6 | 3.2 | 0.00 | 0.05 | 0.05 | 75 | 1021.8 |
| 20260902165003 | 20 | 96 | 3.2 | 3.2 | 0.00 | 0.05 | 0.05 | 73 | 1022.0 |
| 20260902164005 | 20 | 90 | 0.0 | 3.2 | 0.00 | 0.05 | 0.05 | 71 | 1021.9 |
| 20260902163003 | 21 | 102 | 0.0 | 3.2 | 0.00 | 0.05 | 0.05 | 68 | 1022.2 |
| 20260902162004 | 22 | 230 | 1.6 | 3.2 | 0.00 | 0.05 | 0.05 | 63 | 1022.2 |
| 20260902161004 | 22 | 62 | 0.0 | 4.8 | 0.00 | 0.05 | 0.05 | 62 | 1022.4 |
| 20260902160006 | 24 | 20 | 1.6 | 8.0 | 0.00 | 0.05 | 0.05 | 54 | 1022.4 |
| 20260902155003 | 27 | 168 | 0.0 | 4.8 | 0.00 | 0.05 | 0.05 | 49 | 1022.4 |
| 20260902154004 | 26 | 105 | 3.2 | 4.8 | 0.00 | 0.05 | 0.05 | 59 | 1022.4 |
| 20260902153004 | 25 | 184 | 1.6 | 6.4 | 0.00 | 0.05 | 0.05 | 65 | 1022.4 |
| 20260902152004 | 21 | 160 | 0.0 | 6.4 | 0.00 | 0.05 | 0.05 | 71 | 1022.7 |
| 20260902151003 | 21 | 117 | 3.2 | 6.4 | 0.00 | 0.05 | 0.05 | 71 | 1022.5 |
| 20260902150004 | 21 | 87 | 3.2 | 6.4 | 0.00 | 0.05 | 0.05 | 70 | 1022.6 |
| 20260902144003 | 22 | 136 | 3.2 | 8.0 | 0.00 | 0.05 | 0.05 | 66 | 1022.6 |
| 20260902143004 | 23 | 153 | 3.2 | 6.4 | 0.00 | 0.05 | 0.05 | 62 | 1022.6 |
| 20260902142004 | 23 | 139 | 4.8 | 6.4 | 0.03 | 0.05 | 0.05 | 57 | 1022.7 |
| 20260902141003 | 23 | 100 | 0.0 | 4.8 | 0.03 | 0.05 | 0.05 | 70 | 1022.9 |
| 20260902140004 | 22 | 96 | 0.0 | 3.2 | 0.03 | 0.05 | 0.05 | 81 | 1022.8 |
| 20260902135004 | 20 | 181 | 0.0 | 1.6 | 0.03 | 0.05 | 0.05 | 85 | 1023.0 |
| 20260902133003 | 17 | 327 | 3.2 | 4.8 | 0.05 | 0.05 | 0.05 | 86 | 1023.2 |
| 20260902132007 | 18 | 203 | 3.2 | 4.8 | 0.03 | 0.03 | 0.03 | 85 | 1023.1 |
| 20260902131003 | 17 | 310 | 0.0 | 12.9 | 0.03 | 0.03 | 0.03 | 80 | 1023.1 |
| 20260902130005 | 18 | 310 | 4.8 | 14.5 | 0.03 | 0.03 | 0.03 | 74 | 1023.3 |
| 20260902125003 | 20 | 300 | 9.7 | 35.4 | 0.03 | 0.03 | 0.03 | 61 | 1022.8 |
| 20260902124004 | 28 | 309 | 11.3 | 19.3 | 0.00 | 0.00 | 0.00 | 29 | 1022.6 |
| 20260902122004 | 29 | 226 | 4.8 | 17.7 | 0.00 | 0.00 | 0.00 | 28 | 1022.4 |
| 20260902121003 | 28 | 168 | 8.0 | 20.9 | 0.00 | 0.00 | 0.00 | 31 | 1022.6 |
| 20260902120006 | 27 | 241 | 6.4 | 11.3 | 0.00 | 0.00 | 0.00 | 31 | 1022.8 |
| 20260902114004 | 25 | 318 | 6.4 | 16.1 | 0.00 | 0.00 | 0.00 | 35 | 1022.9 |
| 20260902113003 | 25 | 323 | 3.2 | 14.5 | 0.00 | 0.00 | 0.00 | 35 | 1023.1 |
| 20260902111003 | 26 | 292 | 3.2 | 12.9 | 0.00 | 0.00 | 0.00 | 33 | 1023.1 |
| 20260902110007 | 26 | 322 | 6.4 | 12.9 | 0.00 | 0.00 | 0.00 | 34 | 1023.3 |
| 20260902105003 | 25 | 293 | 4.8 | 17.7 | 0.00 | 0.00 | 0.00 | 36 | 1023.2 |
| 20260902104004 | 26 | 269 | 6.4 | 20.9 | 0.00 | 0.00 | 0.00 | 33 | 1023.3 |
| 20260902102004 | 26 | 239 | 3.2 | 24.1 | 0.00 | 0.00 | 0.00 | 36 | 1023.2 |
| 20260902101003 | 24 | 309 | 3.2 | 16.1 | 0.00 | 0.00 | 0.00 | 38 | 1023.4 |
| 20260902100004 | 25 | 334 | 6.4 | 12.9 | 0.00 | 0.00 | 0.00 | 37 | 1023.5 |
| 20260902095004 | 25 | 315 | 8.0 | 17.7 | 0.00 | 0.00 | 0.00 | 34 | 1023.6 |
| 20260902094003 | 25 | 276 | 3.2 | 20.9 | 0.00 | 0.00 | 0.00 | 37 | 1023.6 |
| 20260902093003 | 24 | 178 | 1.6 | 14.5 | 0.00 | 0.00 | 0.00 | 40 | 1023.8 |
| 20260902092007 | 24 | 249 | 4.8 | 16.1 | 0.00 | 0.00 | 0.00 | 41 | 1023.7 |
| 20260902090005 | 23 | 215 | 8.0 | 17.7 | 0.00 | 0.00 | 0.00 | 43 | 1023.8 |
| 20260902085003 | 23 | 206 | 4.8 | 14.5 | 0.00 | 0.00 | 0.00 | 46 | 1023.9 |
| 20260902084004 | 23 | 227 | 3.2 | 12.9 | 0.00 | 0.00 | 0.00 | 46 | 1023.9 |
| 20260902083004 | 23 | 209 | 3.2 | 14.5 | 0.00 | 0.00 | 0.00 | 48 | 1023.8 |
| 20260902082006 | 22 | 217 | 3.2 | 14.5 | 0.00 | 0.00 | 0.00 | 49 | 1024.1 |
| 20260902081004 | 22 | 288 | 4.8 | 8.0 | 0.00 | 0.00 | 0.00 | 50 | 1023.9 |